| time (UTC) | temp F | wind direction | speed MPH | gust MPH | rain 1hr in | rain 24hr in | rain mn in | humidity % | barometer mb |
| 20260508183547 | 66 | 157 | 2.0 | 7.0 | 0.00 | 0.00 | 0.00 | 79 | 1015.9 |
| 20260508183047 | 66 | 91 | 2.0 | 7.0 | 0.00 | 0.00 | 0.00 | 80 | 1015.9 |
| 20260508182545 | 66 | 81 | 3.0 | 9.0 | 0.00 | 0.00 | 0.00 | 80 | 1015.9 |
| 20260508182044 | 65 | 25 | 3.0 | 9.0 | 0.00 | 0.00 | 0.00 | 81 | 1015.9 |
| 20260508181543 | 65 | 5 | 3.0 | 12.0 | 0.00 | 0.00 | 0.00 | 82 | 1015.8 |
| 20260508181043 | 65 | 108 | 2.0 | 12.0 | 0.00 | 0.00 | 0.00 | 82 | 1015.9 |
| 20260508180543 | 65 | 207 | 1.0 | 6.0 | 0.00 | 0.00 | 0.00 | 81 | 1015.9 |
| 20260508180043 | 65 | 132 | 1.0 | 7.0 | 0.00 | 0.00 | 0.00 | 81 | 1015.9 |
| 20260508175543 | 65 | 83 | 1.0 | 7.0 | 0.00 | 0.00 | 0.00 | 82 | 1016.0 |
| 20260508175047 | 63 | 107 | 1.0 | 9.0 | 0.00 | 0.00 | 0.00 | 85 | 1015.9 |
| 20260508175043 | 64 | 150 | 1.0 | 9.0 | 0.00 | 0.00 | 0.00 | 83 | 1016.0 |
| 20260508174043 | 63 | 130 | 0.0 | 3.0 | 0.00 | 0.00 | 0.00 | 85 | 1016.0 |
| 20260508173547 | 61 | 169 | 1.0 | 4.0 | 0.00 | 0.00 | 0.00 | 87 | 1016.0 |
| 20260508173543 | 62 | 181 | 1.0 | 4.0 | 0.00 | 0.00 | 0.00 | 86 | 1016.2 |
| 20260508172541 | 61 | 202 | 1.0 | 3.0 | 0.00 | 0.00 | 0.00 | 88 | 1016.0 |
| 20260508172041 | 60 | 202 | 1.0 | 3.0 | 0.00 | 0.00 | 0.00 | 88 | 1016.2 |
| 20260508171541 | 60 | 195 | 1.0 | 4.0 | 0.00 | 0.00 | 0.00 | 88 | 1016.0 |
| 20260508171041 | 60 | 204 | 1.0 | 4.0 | 0.00 | 0.00 | 0.00 | 87 | 1016.0 |
| 20260508170541 | 60 | 206 | 1.0 | 4.0 | 0.00 | 0.00 | 0.00 | 87 | 1016.0 |
| 20260508170041 | 60 | 178 | 1.0 | 4.0 | 0.00 | 0.00 | 0.00 | 88 | 1015.9 |
| 20260508165541 | 60 | 186 | 1.0 | 4.0 | 0.00 | 0.00 | 0.00 | 88 | 1016.0 |
| 20260508165041 | 60 | 195 | 1.0 | 3.0 | 0.00 | 0.00 | 0.00 | 88 | 1015.9 |
| 20260508164541 | 60 | 178 | 1.0 | 3.0 | 0.00 | 0.00 | 0.00 | 88 | 1015.9 |
| 20260508164042 | 60 | 214 | 1.0 | 3.0 | 0.00 | 0.00 | 0.00 | 88 | 1015.9 |
| 20260508163543 | 61 | 232 | 1.0 | 4.0 | 0.00 | 0.00 | 0.00 | 83 | 1015.9 |
| 20260508163539 | 60 | 213 | 2.0 | 4.0 | 0.00 | 0.00 | 0.00 | 86 | 1015.9 |
| 20260508162539 | 62 | 205 | 1.0 | 4.0 | 0.00 | 0.00 | 0.00 | 80 | 1015.9 |
| 20260508162043 | 66 | 130 | 0.0 | 2.0 | 0.00 | 0.00 | 0.00 | 77 | 1015.8 |
| 20260508162039 | 64 | 184 | 1.0 | 4.0 | 0.00 | 0.00 | 0.00 | 77 | 1015.9 |
| 20260508161642 | 66 | 189 | 0.0 | 4.0 | 0.00 | 0.00 | 0.00 | 76 | 1015.8 |
| 20260508161142 | 66 | 200 | 0.0 | 2.0 | 0.00 | 0.00 | 0.00 | 75 | 1015.8 |
| 20260508160037 | 66 | 130 | 0.0 | 3.0 | 0.00 | 0.00 | 0.00 | 78 | 1015.8 |
| 20260508155537 | 66 | 142 | 0.0 | 3.0 | 0.00 | 0.00 | 0.00 | 77 | 1015.8 |
| 20260508155041 | 65 | 89 | 0.0 | 3.0 | 0.00 | 0.00 | 0.00 | 78 | 1015.7 |
| 20260508155037 | 66 | 175 | 1.0 | 3.0 | 0.00 | 0.00 | 0.00 | 77 | 1015.8 |
| 20260508154037 | 65 | 40 | 0.0 | 2.0 | 0.00 | 0.00 | 0.00 | 79 | 1015.7 |
| 20260508153537 | 64 | 40 | 0.0 | 2.0 | 0.00 | 0.00 | 0.00 | 80 | 1015.8 |
| 20260508153037 | 64 | 5 | 0.0 | 2.0 | 0.00 | 0.00 | 0.00 | 79 | 1015.8 |
| 20260508152537 | 64 | 192 | 0.0 | 2.0 | 0.00 | 0.00 | 0.00 | 78 | 1015.7 |
| 20260508152037 | 63 | 0 | 0.0 | 1.0 | 0.00 | 0.00 | 0.00 | 78 | 1015.8 |
| 20260508151537 | 63 | 0 | 0.0 | 1.0 | 0.00 | 0.00 | 0.00 | 79 | 1015.9 |
| 20260508151041 | 62 | 0 | 0.0 | 3.0 | 0.00 | 0.00 | 0.00 | 80 | 1015.8 |
| 20260508151037 | 62 | 0 | 0.0 | 3.0 | 0.00 | 0.00 | 0.00 | 78 | 1015.8 |
| 20260508150036 | 62 | 0 | 2.0 | 4.0 | 0.00 | 0.00 | 0.00 | 76 | 1015.9 |
| 20260508145541 | 62 | 49 | 2.0 | 4.0 | 0.00 | 0.00 | 0.00 | 78 | 1015.7 |
| 20260508145536 | 62 | 0 | 3.0 | 4.0 | 0.00 | 0.00 | 0.00 | 78 | 1015.7 |
| 20260508144538 | 62 | 49 | 1.0 | 4.0 | 0.00 | 0.00 | 0.00 | 77 | 1015.8 |
| 20260508144037 | 62 | 49 | 1.0 | 3.0 | 0.00 | 0.00 | 0.00 | 79 | 1015.8 |
| 20260508143536 | 62 | 49 | 2.0 | 3.0 | 0.00 | 0.00 | 0.00 | 77 | 1015.8 |
| 20260508143037 | 62 | 49 | 1.0 | 3.0 | 0.00 | 0.00 | 0.00 | 76 | 1015.8 |
| 20260508142534 | 62 | 49 | 1.0 | 3.0 | 0.00 | 0.00 | 0.00 | 78 | 1015.8 |
| 20260508142035 | 63 | 49 | 0.0 | 2.0 | 0.00 | 0.00 | 0.00 | 74 | 1015.8 |
| 20260508141536 | 63 | 49 | 1.0 | 2.0 | 0.00 | 0.00 | 0.00 | 74 | 1015.8 |
| 20260508141036 | 62 | 49 | 1.0 | 2.0 | 0.00 | 0.00 | 0.00 | 74 | 1015.8 |
| 20260508140536 | 62 | 49 | 0.0 | 3.0 | 0.00 | 0.00 | 0.00 | 76 | 1015.7 |
| 20260508140035 | 62 | 49 | 0.0 | 3.0 | 0.00 | 0.00 | 0.00 | 76 | 1015.7 |
| 20260508135536 | 62 | 192 | 0.0 | 2.0 | 0.00 | 0.00 | 0.00 | 76 | 1015.7 |
| 20260508135036 | 62 | 192 | 0.0 | 2.0 | 0.00 | 0.00 | 0.00 | 76 | 1015.7 |
| 20260508134540 | 62 | 94 | 1.0 | 2.0 | 0.00 | 0.00 | 0.00 | 76 | 1015.5 |
| 20260508134536 | 62 | 94 | 0.0 | 1.0 | 0.00 | 0.00 | 0.00 | 76 | 1015.6 |
| 20260508133535 | 61 | 94 | 1.0 | 2.0 | 0.00 | 0.00 | 0.00 | 76 | 1015.6 |
| 20260508133040 | 61 | 94 | 0.0 | 1.0 | 0.00 | 0.00 | 0.00 | 78 | 1015.6 |
| 20260508133035 | 61 | 94 | 0.0 | 2.0 | 0.00 | 0.00 | 0.00 | 77 | 1015.5 |
| 20260508132644 | 60 | 94 | 0.0 | 2.0 | 0.00 | 0.00 | 0.00 | 78 | 1015.5 |
| 20260508131536 | 61 | 94 | 0.0 | 2.0 | 0.00 | 0.00 | 0.00 | 78 | 1015.4 |
| 20260508131036 | 61 | 94 | 1.0 | 2.0 | 0.00 | 0.00 | 0.00 | 77 | 1015.4 |
| 20260508130540 | 61 | 94 | 0.0 | 1.0 | 0.00 | 0.00 | 0.00 | 77 | 1015.3 |
| 20260508130536 | 61 | 94 | 1.0 | 2.0 | 0.00 | 0.00 | 0.00 | 77 | 1015.3 |
| 20260508125535 | 61 | 94 | 0.0 | 0.0 | 0.00 | 0.00 | 0.00 | 77 | 1015.4 |
| 20260508125036 | 61 | 94 | 0.0 | 0.0 | 0.00 | 0.00 | 0.00 | 76 | 1015.4 |
| 20260508124534 | 61 | 94 | 0.0 | 0.0 | 0.00 | 0.00 | 0.00 | 76 | 1015.3 |
| 20260508124033 | 61 | 94 | 0.0 | 2.0 | 0.00 | 0.00 | 0.00 | 76 | 1015.3 |
| 20260508123531 | 62 | 94 | 0.0 | 2.0 | 0.00 | 0.00 | 0.00 | 76 | 1015.3 |
| 20260508123036 | 62 | 94 | 0.0 | 2.0 | 0.00 | 0.00 | 0.00 | 76 | 1015.3 |
| 20260508123031 | 62 | 94 | 0.0 | 2.0 | 0.00 | 0.00 | 0.00 | 78 | 1015.2 |
| 20260508122028 | 62 | 94 | 0.0 | 2.0 | 0.00 | 0.00 | 0.00 | 78 | 1015.2 |
| 20260508121526 | 61 | 94 | 0.0 | 2.0 | 0.00 | 0.00 | 0.00 | 79 | 1015.2 |
| 20260508121026 | 61 | 94 | 0.0 | 2.0 | 0.00 | 0.00 | 0.00 | 79 | 1015.1 |
| 20260508120526 | 60 | 94 | 0.0 | 1.0 | 0.00 | 0.00 | 0.00 | 77 | 1015.1 |
| 20260508120026 | 60 | 94 | 0.0 | 1.0 | 0.00 | 0.00 | 0.00 | 79 | 1015.1 |
| 20260508115526 | 60 | 94 | 0.0 | 1.0 | 0.00 | 0.00 | 0.00 | 80 | 1015.1 |
| 20260508115026 | 60 | 94 | 0.0 | 2.0 | 0.00 | 0.00 | 0.00 | 79 | 1015.1 |
| 20260508114526 | 60 | 94 | 1.0 | 2.0 | 0.00 | 0.00 | 0.00 | 82 | 1015.1 |
| 20260508114026 | 60 | 94 | 1.0 | 2.0 | 0.00 | 0.00 | 0.00 | 80 | 1015.1 |
| 20260508113526 | 59 | 94 | 1.0 | 2.0 | 0.00 | 0.00 | 0.00 | 81 | 1015.1 |
| 20260508113031 | 59 | 264 | 0.0 | 3.0 | 0.00 | 0.00 | 0.00 | 82 | 1015.1 |
| 20260508113025 | 59 | 84 | 1.0 | 2.0 | 0.00 | 0.00 | 0.00 | 82 | 1015.1 |
| 20260508112024 | 60 | 249 | 1.0 | 3.0 | 0.00 | 0.00 | 0.00 | 82 | 1015.1 |
| 20260508111523 | 60 | 200 | 1.0 | 3.0 | 0.00 | 0.00 | 0.00 | 82 | 1015.1 |
| 20260508111022 | 60 | 189 | 1.0 | 3.0 | 0.00 | 0.00 | 0.00 | 81 | 1015.1 |
| 20260508110522 | 59 | 202 | 1.0 | 2.0 | 0.00 | 0.00 | 0.00 | 80 | 1015.1 |
| 20260508110022 | 59 | 191 | 1.0 | 3.0 | 0.00 | 0.00 | 0.00 | 81 | 1015.1 |
| 20260508105523 | 59 | 180 | 2.0 | 4.0 | 0.00 | 0.00 | 0.00 | 82 | 1015.0 |
| 20260508105022 | 60 | 130 | 1.0 | 4.0 | 0.00 | 0.00 | 0.00 | 81 | 1015.0 |
| 20260508104521 | 59 | 19 | 2.0 | 4.0 | 0.00 | 0.00 | 0.00 | 80 | 1015.0 |
| 20260508104022 | 60 | 35 | 2.0 | 4.0 | 0.00 | 0.00 | 0.00 | 82 | 1015.1 |
| 20260508103520 | 60 | 67 | 1.0 | 3.0 | 0.00 | 0.00 | 0.00 | 80 | 1015.2 |
| 20260508103020 | 60 | 67 | 2.0 | 4.0 | 0.00 | 0.00 | 0.00 | 80 | 1015.1 |
| 20260508102520 | 59 | 45 | 3.0 | 5.0 | 0.00 | 0.00 | 0.00 | 80 | 1015.0 |
| 20260508102020 | 59 | 55 | 3.0 | 5.0 | 0.00 | 0.00 | 0.00 | 80 | 1015.0 |
| 20260508101520 | 59 | 33 | 4.0 | 6.0 | 0.00 | 0.00 | 0.00 | 80 | 1015.0 |
| 20260508101020 | 59 | 38 | 4.0 | 6.0 | 0.00 | 0.00 | 0.00 | 81 | 1015.2 |
| 20260508100520 | 58 | 43 | 3.0 | 5.0 | 0.00 | 0.00 | 0.00 | 81 | 1015.1 |
| 20260508100024 | 58 | 55 | 1.0 | 5.0 | 0.00 | 0.00 | 0.00 | 83 | 1015.1 |
| 20260508100020 | 58 | 74 | 2.0 | 5.0 | 0.00 | 0.00 | 0.00 | 83 | 1015.1 |
| 20260508095628 | 58 | 25 | 2.0 | 5.0 | 0.00 | 0.00 | 0.00 | 84 | 1015.2 |
| 20260508094522 | 58 | 355 | 5.0 | 8.0 | 0.00 | 0.00 | 0.00 | 84 | 1015.1 |
| 20260508094518 | 58 | 310 | 4.0 | 6.0 | 0.00 | 0.00 | 0.00 | 84 | 1015.1 |
| 20260508094125 | 58 | 315 | 6.0 | 9.0 | 0.00 | 0.00 | 0.00 | 84 | 1015.2 |
| 20260508093020 | 58 | 355 | 6.0 | 9.0 | 0.00 | 0.00 | 0.00 | 84 | 1015.1 |
| 20260508093016 | 58 | 29 | 6.0 | 8.0 | 0.00 | 0.00 | 0.00 | 84 | 1015.1 |
| 20260508092016 | 58 | 42 | 6.0 | 8.0 | 0.00 | 0.00 | 0.00 | 84 | 1015.2 |
| 20260508091516 | 58 | 24 | 5.0 | 8.0 | 0.00 | 0.00 | 0.00 | 82 | 1015.1 |
| 20260508091016 | 60 | 29 | 4.0 | 6.0 | 0.00 | 0.00 | 0.00 | 78 | 1015.2 |
| 20260508090513 | 61 | 20 | 4.0 | 7.0 | 0.00 | 0.00 | 0.00 | 76 | 1015.1 |
| 20260508090013 | 62 | 20 | 4.0 | 7.0 | 0.00 | 0.00 | 0.00 | 76 | 1015.2 |
| 20260508085517 | 62 | 11 | 3.0 | 5.0 | 0.00 | 0.00 | 0.00 | 76 | 1015.3 |
| 20260508085513 | 62 | 20 | 4.0 | 5.0 | 0.00 | 0.00 | 0.00 | 77 | 1015.3 |
| 20260508084515 | 62 | 253 | 1.0 | 3.0 | 0.00 | 0.00 | 0.00 | 76 | 1015.3 |
| 20260508084511 | 62 | 18 | 2.0 | 4.0 | 0.00 | 0.00 | 0.00 | 76 | 1015.3 |
| 20260508083511 | 62 | 263 | 1.0 | 2.0 | 0.00 | 0.00 | 0.00 | 76 | 1015.4 |
| 20260508083015 | 62 | 36 | 1.0 | 2.0 | 0.00 | 0.00 | 0.00 | 75 | 1015.4 |
| 20260508083011 | 62 | 270 | 1.0 | 2.0 | 0.00 | 0.00 | 0.00 | 75 | 1015.4 |
| 20260508082011 | 63 | 202 | 0.0 | 1.0 | 0.00 | 0.00 | 0.00 | 75 | 1015.5 |
| 20260508081511 | 62 | 163 | 0.0 | 1.0 | 0.00 | 0.00 | 0.00 | 76 | 1015.5 |
| 20260508081011 | 62 | 169 | 0.0 | 0.0 | 0.00 | 0.00 | 0.00 | 77 | 1015.6 |
| 20260508080508 | 62 | 152 | 0.0 | 0.0 | 0.00 | 0.00 | 0.00 | 76 | 1015.7 |
| 20260508080008 | 62 | 127 | 0.0 | 0.0 | 0.00 | 0.00 | 0.00 | 77 | 1015.7 |
| 20260508075507 | 61 | 130 | 0.0 | 0.0 | 0.00 | 0.00 | 0.00 | 77 | 1015.8 |
| 20260508075005 | 61 | 127 | 0.0 | 1.0 | 0.00 | 0.00 | 0.00 | 78 | 1015.8 |
| 20260508074505 | 60 | 112 | 0.0 | 3.0 | 0.00 | 0.00 | 0.00 | 78 | 1015.8 |
| 20260508074003 | 61 | 61 | 0.0 | 3.0 | 0.00 | 0.00 | 0.00 | 78 | 1015.7 |
| 20260508073503 | 61 | 355 | 0.0 | 3.0 | 0.00 | 0.00 | 0.00 | 78 | 1015.9 |
| 20260508073007 | 62 | 355 | 0.0 | 3.0 | 0.00 | 0.00 | 0.00 | 75 | 1015.9 |
| 20260508073003 | 61 | 5 | 0.0 | 3.0 | 0.00 | 0.00 | 0.00 | 77 | 1015.8 |
| 20260508072004 | 63 | 355 | 0.0 | 2.0 | 0.00 | 0.00 | 0.00 | 73 | 1015.8 |
| 20260508071503 | 64 | 349 | 0.0 | 2.0 | 0.00 | 0.00 | 0.00 | 72 | 1015.7 |
| 20260508071009 | 65 | 31 | 1.0 | 5.0 | 0.00 | 0.00 | 0.00 | 72 | 1015.6 |
| 20260508071003 | 64 | 31 | 0.0 | 2.0 | 0.00 | 0.00 | 0.00 | 72 | 1015.7 |
| 20260508070004 | 65 | 88 | 2.0 | 5.0 | 0.00 | 0.00 | 0.00 | 72 | 1015.7 |
| 20260508065505 | 65 | 21 | 4.0 | 5.0 | 0.00 | 0.00 | 0.00 | 73 | 1015.7 |
| 20260508065501 | 65 | 71 | 3.0 | 5.0 | 0.00 | 0.00 | 0.00 | 72 | 1015.7 |
| 20260508064501 | 65 | 46 | 4.0 | 5.0 | 0.00 | 0.00 | 0.00 | 72 | 1015.7 |
| 20260508064005 | 66 | 61 | 2.0 | 4.0 | 0.00 | 0.00 | 0.00 | 71 | 1015.7 |
| 20260508064001 | 66 | 40 | 3.0 | 5.0 | 0.00 | 0.00 | 0.00 | 71 | 1015.7 |
| 20260508063001 | 66 | 331 | 3.0 | 4.0 | 0.00 | 0.00 | 0.00 | 72 | 1015.7 |
| 20260508062501 | 65 | 321 | 3.0 | 4.0 | 0.00 | 0.00 | 0.00 | 70 | 1015.6 |
| 20260508062001 | 66 | 30 | 3.0 | 5.0 | 0.00 | 0.00 | 0.00 | 70 | 1015.6 |
| 20260508061501 | 65 | 30 | 3.0 | 5.0 | 0.00 | 0.00 | 0.00 | 70 | 1015.7 |
| 20260508061000 | 65 | 340 | 3.0 | 5.0 | 0.00 | 0.00 | 0.00 | 68 | 1015.6 |
| 20260508060459 | 66 | 332 | 4.0 | 5.0 | 0.00 | 0.00 | 0.00 | 66 | 1015.6 |
| 20260508055959 | 66 | 9 | 4.0 | 7.0 | 0.00 | 0.00 | 0.00 | 66 | 1015.7 |
| 20260508055459 | 66 | 22 | 5.0 | 7.0 | 0.00 | 0.00 | 0.00 | 65 | 1015.7 |
| 20260508054959 | 67 | 22 | 5.0 | 8.0 | 0.00 | 0.00 | 0.00 | 65 | 1015.7 |
| 20260508054503 | 67 | 56 | 5.0 | 8.0 | 0.00 | 0.00 | 0.00 | 66 | 1015.7 |
| 20260508054459 | 67 | 36 | 5.0 | 8.0 | 0.00 | 0.00 | 0.00 | 65 | 1015.7 |
| 20260508053459 | 67 | 58 | 5.0 | 8.0 | 0.00 | 0.00 | 0.00 | 67 | 1015.7 |
| 20260508052959 | 67 | 53 | 4.0 | 6.0 | 0.00 | 0.00 | 0.00 | 67 | 1015.7 |
| 20260508052458 | 67 | 60 | 4.0 | 6.0 | 0.00 | 0.00 | 0.00 | 67 | 1015.7 |
| 20260508051958 | 67 | 59 | 2.0 | 6.0 | 0.00 | 0.00 | 0.00 | 67 | 1015.7 |
| 20260508051457 | 66 | 55 | 2.0 | 4.0 | 0.00 | 0.00 | 0.00 | 67 | 1015.7 |
| 20260508051002 | 66 | 0 | 2.0 | 4.0 | 0.00 | 0.00 | 0.00 | 65 | 1015.7 |
| 20260508050957 | 66 | 0 | 2.0 | 3.0 | 0.00 | 0.00 | 0.00 | 65 | 1015.7 |
| 20260508050000 | 66 | 0 | 1.0 | 4.0 | 0.00 | 0.00 | 0.00 | 67 | 1015.7 |
| 20260508045956 | 66 | 0 | 1.0 | 4.0 | 0.00 | 0.00 | 0.00 | 65 | 1015.7 |
| 20260508044957 | 67 | 0 | 1.0 | 4.0 | 0.00 | 0.00 | 0.00 | 66 | 1015.6 |
| 20260508044456 | 67 | 0 | 1.0 | 4.0 | 0.00 | 0.00 | 0.00 | 67 | 1015.6 |
| 20260508043957 | 67 | 22 | 0.0 | 3.0 | 0.00 | 0.00 | 0.00 | 66 | 1015.7 |
| 20260508043456 | 67 | 22 | 1.0 | 3.0 | 0.00 | 0.00 | 0.00 | 67 | 1015.6 |
| 20260508042957 | 68 | 26 | 1.0 | 2.0 | 0.00 | 0.00 | 0.00 | 66 | 1015.5 |
| 20260508042457 | 68 | 40 | 0.0 | 2.0 | 0.00 | 0.00 | 0.00 | 65 | 1015.4 |
| 20260508041957 | 68 | 40 | 0.0 | 1.0 | 0.00 | 0.00 | 0.00 | 64 | 1015.4 |
| 20260508041456 | 68 | 40 | 0.0 | 1.0 | 0.00 | 0.00 | 0.00 | 64 | 1015.3 |
| 20260508040955 | 68 | 40 | 0.0 | 1.0 | 0.00 | 0.00 | 0.00 | 64 | 1015.3 |
| 20260508040455 | 68 | 40 | 0.0 | 2.0 | 0.00 | 0.00 | 0.00 | 64 | 1015.2 |
| 20260508035955 | 68 | 40 | 1.0 | 2.0 | 0.00 | 0.00 | 0.00 | 64 | 1015.3 |
| 20260508035455 | 68 | 32 | 0.0 | 2.0 | 0.00 | 0.00 | 0.00 | 64 | 1015.1 |
| 20260508034955 | 69 | 221 | 0.0 | 0.0 | 0.00 | 0.00 | 0.00 | 64 | 1015.1 |
| 20260508034454 | 69 | 221 | 0.0 | 0.0 | 0.00 | 0.00 | 0.00 | 64 | 1015.1 |
| 20260508033955 | 69 | 221 | 0.0 | 1.0 | 0.00 | 0.00 | 0.00 | 65 | 1015.1 |
| 20260508033455 | 69 | 221 | 0.0 | 1.0 | 0.00 | 0.00 | 0.00 | 65 | 1015.1 |
| 20260508032959 | 69 | 221 | 0.0 | 1.0 | 0.00 | 0.00 | 0.00 | 64 | 1014.9 |
| 20260508032955 | 69 | 221 | 0.0 | 1.0 | 0.00 | 0.00 | 0.00 | 64 | 1014.9 |
| 20260508031956 | 69 | 221 | 0.0 | 4.0 | 0.00 | 0.00 | 0.00 | 65 | 1014.9 |
| 20260508031454 | 69 | 221 | 1.0 | 4.0 | 0.00 | 0.00 | 0.00 | 64 | 1014.8 |
| 20260508030954 | 69 | 221 | 2.0 | 4.0 | 0.00 | 0.00 | 0.00 | 64 | 1014.8 |
| 20260508030453 | 69 | 221 | 3.0 | 7.0 | 0.00 | 0.00 | 0.00 | 63 | 1014.6 |
| 20260508025953 | 69 | 230 | 4.0 | 7.0 | 0.00 | 0.00 | 0.00 | 63 | 1014.5 |
| 20260508025450 | 70 | 225 | 4.0 | 8.0 | 0.00 | 0.00 | 0.00 | 62 | 1014.5 |
| 20260508024950 | 70 | 221 | 4.0 | 8.0 | 0.00 | 0.00 | 0.00 | 61 | 1014.5 |
| 20260508024451 | 70 | 233 | 3.0 | 6.0 | 0.00 | 0.00 | 0.00 | 60 | 1014.5 |
| 20260508023951 | 70 | 253 | 2.0 | 6.0 | 0.00 | 0.00 | 0.00 | 60 | 1014.5 |
| 20260508023451 | 71 | 223 | 1.0 | 3.0 | 0.00 | 0.00 | 0.00 | 59 | 1014.4 |
| 20260508022951 | 71 | 273 | 0.0 | 2.0 | 0.00 | 0.00 | 0.00 | 59 | 1014.4 |
| 20260508022451 | 71 | 273 | 0.0 | 2.0 | 0.00 | 0.00 | 0.00 | 59 | 1014.3 |
| 20260508021951 | 71 | 273 | 1.0 | 2.0 | 0.00 | 0.00 | 0.00 | 60 | 1014.3 |
| 20260508021451 | 71 | 273 | 0.0 | 2.0 | 0.00 | 0.00 | 0.00 | 60 | 1014.3 |
| 20260508020951 | 71 | 273 | 0.0 | 4.0 | 0.00 | 0.00 | 0.00 | 59 | 1014.3 |
| 20260508020455 | 71 | 273 | 2.0 | 6.0 | 0.00 | 0.00 | 0.00 | 62 | 1014.2 |
| 20260508020451 | 71 | 273 | 0.0 | 4.0 | 0.00 | 0.00 | 0.00 | 60 | 1014.2 |
| 20260508015451 | 71 | 273 | 3.0 | 6.0 | 0.00 | 0.00 | 0.00 | 62 | 1014.2 |
| 20260508014951 | 71 | 267 | 3.0 | 6.0 | 0.00 | 0.00 | 0.00 | 62 | 1014.2 |
| 20260508014451 | 72 | 267 | 2.0 | 6.0 | 0.00 | 0.00 | 0.00 | 60 | 1014.3 |
| 20260508013955 | 73 | 286 | 3.0 | 5.0 | 0.00 | 0.00 | 0.00 | 58 | 1014.2 |
| 20260508013951 | 73 | 250 | 2.0 | 5.0 | 0.00 | 0.00 | 0.00 | 59 | 1014.3 |
| 20260508012951 | 73 | 275 | 3.0 | 7.0 | 0.00 | 0.00 | 0.00 | 58 | 1014.2 |
| 20260508012455 | 74 | 311 | 2.0 | 5.0 | 0.00 | 0.00 | 0.00 | 57 | 1014.2 |
| 20260508012451 | 74 | 288 | 3.0 | 7.0 | 0.00 | 0.00 | 0.00 | 57 | 1014.1 |
| 20260508011454 | 75 | 252 | 0.0 | 3.0 | 0.00 | 0.00 | 0.00 | 57 | 1014.2 |
| 20260508011448 | 75 | 312 | 1.0 | 4.0 | 0.00 | 0.00 | 0.00 | 57 | 1014.2 |
| 20260508011056 | 75 | 308 | 1.0 | 3.0 | 0.00 | 0.00 | 0.00 | 57 | 1014.3 |
| 20260508005949 | 75 | 262 | 1.0 | 5.0 | 0.00 | 0.00 | 0.00 | 56 | 1014.3 |
| 20260508005454 | 75 | 267 | 1.0 | 5.0 | 0.00 | 0.00 | 0.00 | 57 | 1014.2 |
| 20260508005448 | 75 | 317 | 1.0 | 5.0 | 0.00 | 0.00 | 0.00 | 55 | 1014.2 |
| 20260508004448 | 75 | 277 | 2.0 | 5.0 | 0.00 | 0.00 | 0.00 | 55 | 1014.3 |
| 20260508003952 | 75 | 268 | 2.0 | 4.0 | 0.00 | 0.00 | 0.00 | 56 | 1014.3 |
| 20260508003948 | 76 | 257 | 1.0 | 5.0 | 0.00 | 0.00 | 0.00 | 55 | 1014.3 |
| 20260508002949 | 76 | 304 | 1.0 | 5.0 | 0.00 | 0.00 | 0.00 | 56 | 1014.3 |
| 20260508002448 | 76 | 300 | 1.0 | 6.0 | 0.00 | 0.00 | 0.00 | 55 | 1014.2 |
| 20260508001948 | 76 | 306 | 1.0 | 6.0 | 0.00 | 0.00 | 0.00 | 56 | 1014.2 |
| 20260508001448 | 76 | 293 | 1.0 | 6.0 | 0.00 | 0.00 | 0.00 | 56 | 1014.2 |
| 20260508000948 | 76 | 229 | 1.0 | 6.0 | 0.00 | 0.00 | 0.00 | 56 | 1014.2 |
| 20260508000445 | 76 | 18 | 2.0 | 6.0 | 0.00 | 0.00 | 0.00 | 55 | 1014.3 |
| 20260507235946 | 76 | 47 | 1.0 | 9.0 | 0.00 | 0.00 | 0.00 | 55 | 1014.3 |
| 20260507235454 | 76 | 258 | 1.0 | 9.0 | 0.00 | 0.00 | 0.00 | 56 | 1014.3 |
| 20260507235447 | 76 | 315 | 1.0 | 9.0 | 0.00 | 0.00 | 0.00 | 55 | 1014.3 |
| 20260507234446 | 76 | 309 | 2.0 | 9.0 | 0.00 | 0.00 | 0.00 | 57 | 1014.3 |
| 20260507234054 | 75 | 244 | 4.0 | 12.0 | 0.00 | 0.00 | 0.00 | 59 | 1014.4 |
| 20260507233952 | 76 | 284 | 2.0 | 12.0 | 0.00 | 0.00 | 0.00 | 59 | 1014.4 |
| 20260507233946 | 76 | 252 | 1.0 | 5.0 | 0.00 | 0.00 | 0.00 | 57 | 1014.3 |
| 20260507233702 | 75 | 292 | 2.0 | 9.0 | 0.00 | 0.00 | 0.00 | 58 | 1014.4 |
| 20260507232446 | 75 | 248 | 3.0 | 10.0 | 0.00 | 0.00 | 0.00 | 57 | 1014.3 |
| 20260507231445 | 75 | 263 | 2.0 | 9.0 | 0.00 | 0.00 | 0.00 | 58 | 1014.4 |
| 20260507230944 | 76 | 252 | 3.0 | 9.0 | 0.00 | 0.00 | 0.00 | 56 | 1014.4 |
| 20260507230449 | 75 | 305 | 5.0 | 9.0 | 0.00 | 0.00 | 0.00 | 59 | 1014.4 |
| 20260507230445 | 75 | 255 | 4.0 | 9.0 | 0.00 | 0.00 | 0.00 | 57 | 1014.4 |
| 20260507225444 | 75 | 279 | 5.0 | 13.0 | 0.00 | 0.00 | 0.00 | 60 | 1014.4 |
| 20260507224944 | 74 | 305 | 5.0 | 13.0 | 0.00 | 0.00 | 0.00 | 61 | 1014.4 |
| 20260507224444 | 74 | 329 | 6.0 | 13.0 | 0.00 | 0.00 | 0.00 | 61 | 1014.4 |
| 20260507223948 | 74 | 309 | 7.0 | 12.0 | 0.00 | 0.00 | 0.00 | 64 | 1014.5 |
| 20260507223944 | 74 | 311 | 7.0 | 13.0 | 0.00 | 0.00 | 0.00 | 63 | 1014.6 |
| 20260507222944 | 73 | 270 | 6.0 | 12.0 | 0.00 | 0.00 | 0.00 | 63 | 1014.5 |
| 20260507222444 | 73 | 284 | 6.0 | 11.0 | 0.00 | 0.00 | 0.00 | 65 | 1014.6 |
| 20260507221942 | 73 | 284 | 5.0 | 11.0 | 0.00 | 0.00 | 0.00 | 65 | 1014.6 |
| 20260507221442 | 73 | 266 | 4.0 | 10.0 | 0.00 | 0.00 | 0.00 | 64 | 1014.6 |
| 20260507220942 | 74 | 259 | 4.0 | 12.0 | 0.00 | 0.00 | 0.00 | 63 | 1014.8 |
| 20260507220442 | 74 | 287 | 5.0 | 12.0 | 0.00 | 0.00 | 0.00 | 65 | 1014.8 |
| 20260507215946 | 73 | 306 | 4.0 | 10.0 | 0.00 | 0.00 | 0.00 | 66 | 1014.9 |
| 20260507215942 | 73 | 267 | 4.0 | 10.0 | 0.00 | 0.00 | 0.00 | 66 | 1014.9 |
| 20260507214942 | 73 | 307 | 4.0 | 10.0 | 0.00 | 0.00 | 0.00 | 64 | 1015.0 |
| 20260507214443 | 72 | 310 | 5.0 | 10.0 | 0.00 | 0.00 | 0.00 | 67 | 1015.0 |
| 20260507213942 | 72 | 291 | 4.0 | 10.0 | 0.00 | 0.00 | 0.00 | 67 | 1015.1 |
| 20260507213442 | 72 | 267 | 2.0 | 8.0 | 0.00 | 0.00 | 0.00 | 66 | 1015.2 |
| 20260507212946 | 73 | 267 | 6.0 | 12.0 | 0.00 | 0.00 | 0.00 | 66 | 1015.2 |
| 20260507212942 | 73 | 304 | 4.0 | 10.0 | 0.00 | 0.00 | 0.00 | 66 | 1015.2 |
| 20260507211942 | 73 | 322 | 6.0 | 12.0 | 0.00 | 0.00 | 0.00 | 66 | 1015.3 |
| 20260507211443 | 73 | 267 | 4.0 | 11.0 | 0.00 | 0.00 | 0.00 | 66 | 1015.3 |
| 20260507210943 | 73 | 296 | 5.0 | 9.0 | 0.00 | 0.00 | 0.00 | 66 | 1015.3 |
| 20260507210443 | 72 | 280 | 5.0 | 9.0 | 0.00 | 0.00 | 0.00 | 65 | 1015.3 |
| 20260507205941 | 71 | 285 | 5.0 | 9.0 | 0.00 | 0.00 | 0.00 | 68 | 1015.4 |
| 20260507205441 | 71 | 254 | 5.0 | 9.0 | 0.00 | 0.00 | 0.00 | 67 | 1015.4 |
| 20260507204942 | 72 | 275 | 3.0 | 9.0 | 0.00 | 0.00 | 0.00 | 64 | 1015.4 |
| 20260507204938 | 73 | 292 | 1.0 | 8.0 | 0.00 | 0.00 | 0.00 | 64 | 1015.5 |
| 20260507203938 | 73 | 238 | 3.0 | 10.0 | 0.00 | 0.00 | 0.00 | 66 | 1015.6 |
| 20260507203435 | 72 | 72 | 4.0 | 10.0 | 0.00 | 0.00 | 0.00 | 69 | 1015.5 |
| 20260507202939 | 72 | 264 | 2.0 | 7.0 | 0.00 | 0.00 | 0.00 | 64 | 1015.7 |
| 20260507202935 | 71 | 289 | 3.0 | 10.0 | 0.00 | 0.00 | 0.00 | 66 | 1015.6 |
| 20260507201933 | 72 | 254 | 2.0 | 8.0 | 0.00 | 0.00 | 0.00 | 65 | 1015.7 |
| 20260507201433 | 72 | 266 | 2.0 | 8.0 | 0.00 | 0.00 | 0.00 | 65 | 1015.8 |
| 20260507200934 | 71 | 246 | 1.0 | 6.0 | 0.00 | 0.00 | 0.00 | 67 | 1015.7 |
| 20260507200433 | 72 | 292 | 1.0 | 3.0 | 0.00 | 0.00 | 0.00 | 67 | 1015.9 |
| 20260507195933 | 72 | 257 | 0.0 | 3.0 | 0.00 | 0.00 | 0.00 | 66 | 1015.9 |
| 20260507195434 | 73 | 263 | 1.0 | 4.0 | 0.00 | 0.00 | 0.00 | 65 | 1015.9 |
| 20260507194934 | 72 | 250 | 1.0 | 4.0 | 0.00 | 0.00 | 0.00 | 68 | 1015.9 |
| 20260507194433 | 73 | 226 | 1.0 | 4.0 | 0.00 | 0.00 | 0.00 | 66 | 1015.9 |
| 20260507193933 | 73 | 161 | 1.0 | 6.0 | 0.00 | 0.00 | 0.00 | 66 | 1015.9 |
| 20260507193433 | 72 | 211 | 2.0 | 11.0 | 0.00 | 0.00 | 0.00 | 66 | 1016.0 |
| 20260507192933 | 73 | 190 | 3.0 | 11.0 | 0.00 | 0.00 | 0.00 | 63 | 1016.0 |
| 20260507192434 | 74 | 26 | 4.0 | 11.0 | 0.00 | 0.00 | 0.00 | 63 | 1016.2 |
| 20260507191937 | 74 | 88 | 5.0 | 11.0 | 0.00 | 0.00 | 0.00 | 61 | 1016.0 |
| 20260507191933 | 74 | 92 | 4.0 | 11.0 | 0.00 | 0.00 | 0.00 | 61 | 1016.2 |
| 20260507190933 | 73 | 98 | 6.0 | 11.0 | 0.00 | 0.00 | 0.00 | 64 | 1016.2 |
| 20260507190438 | 74 | 30 | 6.0 | 10.0 | 0.00 | 0.00 | 0.00 | 60 | 1016.3 |
| 20260507190434 | 74 | 90 | 6.0 | 11.0 | 0.00 | 0.00 | 0.00 | 60 | 1016.2 |
| 20260507185434 | 74 | 24 | 6.0 | 12.0 | 0.00 | 0.00 | 0.00 | 61 | 1016.3 |
| 20260507184933 | 73 | 13 | 6.0 | 12.0 | 0.00 | 0.00 | 0.00 | 63 | 1016.4 |
| 20260507184433 | 72 | 46 | 7.0 | 12.0 | 0.00 | 0.00 | 0.00 | 63 | 1016.4 |
| 20260507183933 | 71 | 45 | 7.0 | 12.0 | 0.00 | 0.00 | 0.00 | 64 | 1016.4 |